#timestamp,LO_Frequency,Hit,StdDev 
1613718015.8,286046999.8,N
1613718035.6,286046998.7,N
1613718055.4,286046995.2,N
1613718075.3,286046994.5,N
1613718095.1,286046993.0,N
1613718115.8,286046991.0,N
1613718135.7,286046987.4,Y
1613718155.5,286046989.6,P
1613718175.4,286046988.4,N
1613718195.2,286046988.4,N
1613718215.0,286046986.6,Y
1613718215.9,286046986.6,P
1613718235.8,286046993.6,N
1613718255.6,286046993.4,N
1613718275.5,286046993.7,N
1613718295.3,286046993.4,N
1613718315.1,286046994.6,N
1613718335.9,286046994.7,N
1613718355.7,286046994.2,N
1613718375.5,286046992.8,Y
1613718395.4,286046996.8,P
1613718415.2,286046995.0,N
1613718435.1,286046993.5,P
1613718436.0,286046993.5,Y
1613718455.8,286047002.3,P
1613718475.6,286047005.2,N
1613718495.5,286047006.8,N
1613718515.3,286047003.1,N
1613718535.2,286047001.9,N
1613718555.9,286047002.6,N
1613718575.7,286047000.4,N
1613718595.6,286047000.5,N
1613718615.4,286046998.2,N
1613718635.2,286046998.9,N
1613718655.1,286046998.6,N
1613718656.0,286046998.6,N
1613718675.8,286046999.0,N
1613718695.7,286046997.4,N
1613718715.5,286046999.5,N
1613718735.3,286046999.2,N
1613718755.2,286046998.6,N
1613718775.9,286047001.1,N
1613718795.7,286046998.4,N
1613718815.6,286046998.3,N
1613718835.4,286047002.2,N
1613718855.2,286047000.1,N
1613718875.1,286046999.2,N
1613718876.0,286046999.2,N
1613718895.8,286046998.4,N
1613718915.7,286046999.0,N
1613718935.5,286046996.5,N
1613718955.3,286047001.1,N
1613718975.2,286046999.3,N
1613718995.0,286046999.1,N
1613718995.9,286046999.1,N
1613719015.8,286046999.4,N
1613719035.6,286046998.6,N
1613719055.4,286046998.7,N
1613719075.3,286046998.8,N
1613719095.1,286046999.5,N
1613719096.0,286046999.5,N
1613719115.8,286046997.4,N
1613719135.7,286046997.5,N
1613719155.5,286046995.8,Y
1613719175.4,286046995.0,P
1613719195.2,286046997.7,N
1613719215.0,286046997.7,N
1613719215.9,286046997.7,N
1613719235.8,286046997.7,N
1613719255.6,286046996.9,N
1613719275.4,286046997.1,N
1613719295.3,286046997.7,N
1613719315.1,286046996.8,Y
1613719335.9,286047000.5,P
1613719355.7,286047002.8,N
1613719375.5,286047002.3,N
1613719395.4,286047003.8,N
1613719415.2,286047001.8,N
1613719435.0,286047001.8,N
1613719435.9,286047001.8,N
1613719455.8,286047001.8,N
1613719475.6,286047004.1,N
1613719495.5,286047003.6,N
1613719515.3,286047003.4,N
1613719535.1,286047005.8,Y
1613719555.9,286047004.3,P
1613719575.7,286047001.9,N
1613719595.5,286047002.8,N
1613719615.4,286047000.9,N
1613719635.2,286047000.9,N
1613719655.1,286047001.0,N
1613719656.0,286047001.0,N
1613719675.8,286046996.6,Y
1613719695.6,286046994.9,P
1613719715.5,286046995.0,N
1613719735.3,286046997.7,N
1613719755.2,286046997.5,N
1613719775.9,286046996.5,N
1613719795.7,286046997.3,N
1613719815.6,286046995.4,N
1613719835.4,286046995.3,N
1613719855.2,286046997.5,N
1613719875.1,286046997.9,N
1613719876.0,286046997.9,N
1613719895.8,286046993.6,Y
1613719915.7,286046998.1,P
1613719935.5,286047001.1,N
1613719955.3,286047001.2,N
1613719975.2,286047000.3,N
1613719995.0,286046998.3,N
1613719995.9,286046998.3,N
1613720015.7,286047000.9,N
1613720035.6,286047002.8,N
1613720055.4,286047000.6,N
1613720075.3,286047000.1,N
1613720095.1,286047000.5,N
1613720096.0,286047000.5,N
1613720115.8,286047000.1,N
1613720135.7,286046999.3,N
1613720155.5,286046998.2,N
1613720175.3,286046999.7,N
1613720195.2,286047001.9,N
1613720215.0,286047005.5,Y
1613720215.9,286047005.5,P
1613720235.8,286047003.4,N
1613720255.6,286047005.1,N
1613720275.4,286047005.5,N
1613720295.3,286047006.0,N
1613720315.1,286047005.9,N
1613720335.8,286047004.7,N
1613720355.7,286047005.8,Y
1613720375.5,286047000.4,P
1613720395.4,286046998.5,N
1613720415.2,286046999.1,N
1613720435.0,286046999.5,N
1613720435.9,286046999.5,N
1613720455.8,286046998.7,N
1613720475.6,286047000.8,N
1613720495.4,286046998.3,N
1613720515.3,286047000.8,N
1613720535.1,286047001.0,N
1613720555.9,286047000.5,N
1613720575.7,286046998.6,N
1613720595.5,286046998.7,N
1613720615.4,286046999.0,N
1613720635.2,286046999.0,N
1613720655.0,286046998.7,N
1613720655.9,286046998.7,N
1613720675.8,286046996.6,N
1613720695.6,286046997.0,N
1613720715.5,286046994.9,Y
1613720735.3,286046994.9,P
1613720755.1,286046997.4,N
1613720775.9,286046997.5,N
1613720795.7,286046994.9,Y
1613720815.6,286046998.3,P
1613720835.4,286047000.7,N
1613720855.2,286047001.0,N
1613720875.1,286047001.0,N
1613720876.0,286047001.0,N
1613720895.8,286046998.8,N
1613720915.6,286047000.6,N
1613720935.5,286046999.8,N
1613720955.3,286046999.8,N
1613720975.1,286047000.8,N
1613720995.9,286047000.4,N
1613721015.7,286046998.7,N
1613721035.6,286046996.5,Y
1613721055.4,286046996.9,P
1613721075.2,286046996.8,N
1613721095.1,286047000.7,N
1613721096.0,286047000.7,N
1613721115.8,286046998.4,N
1613721135.7,286046997.4,N
1613721155.5,286046997.3,N
1613721175.3,286046994.9,Y
1613721195.2,286046998.3,P
1613721215.9,286046999.4,P
1613721235.7,286046997.3,P
1613721255.6,286047001.1,N
1613721275.4,286047004.2,Y
1613721295.3,286047003.8,P
1613721315.1,286047003.2,N
1613721316.0,286047003.2,N
1613721335.8,286047006.0,Y
1613721355.7,286047002.0,P
1613721375.5,286046998.1,P
1613721395.3,286047001.1,N
1613721415.2,286046998.6,N
1613721435.0,286046997.8,N
1613721435.9,286047011.9,Y
1613721455.8,286046997.6,P
1613721475.6,286046996.8,N
1613721495.4,286046996.0,N
1613721515.3,286046995.7,N
1613721535.1,286046995.6,N
1613721555.8,286046998.0,N
1613721575.7,286046995.8,N
1613721595.5,286046993.7,Y
